Regional Weather Roundup
Issued by NWS

Home | Current Version | Previous Version | Graphics & Text | Print | Product List | Glossary On
Versions: 1 2 3 4 5 6 7 8 9 10 11 12 13 14 15 16 17 18 19 20 21 22 23 24 25 26 27 28 29 30 31 32 33 34 35 36 37 38 39 40 41 42 43 44 45 46 47 48 49 50
000
ASUS43 KMPX 211810
RWRMN
WEATHER ROUNDUP FOR MINNESOTA
NATIONAL WEATHER SERVICE TWIN CITIES/CHANHASSEN MN
100 PM CDT THU SEP 21 2017


NOTE: "FAIR" INDICATES FEW OR NO CLOUDS BELOW 12,000 FEET WITH NO
SIGNIFICANT WEATHER AND/OR OBSTRUCTIONS TO VISIBILITY. N/A MEANS
CURRENT SKY AND/OR WEATHER CONDITIONS ARE NOT AVAILABLE.

MNZ060>063-068>070-211900-
   Twin Cities Metro

CITY           SKY/WX    TMP DP  RH WIND       PRES   REMARKS
TWIN CITIES    MOSUNNY   76  62  62 SE13      29.91F
6HR MIN TEMP:  55; 6HR MAX TEMP:  76;

ST PAUL        SUNNY     76  62  62 SE15      29.91F
CRYSTAL        SUNNY     76  58  53 SE13G20   29.89F
BLAINE         SUNNY     77  59  53 SE13G18   29.91F
LAKEVILLE      CLOUDY    73  64  73 SE8       29.91F
EDEN PRAIRIE   SUNNY     77  63  61 SE16      29.89F
6HR MIN TEMP:  53; 6HR MAX TEMP:  77;

SOUTH ST PAUL  SUNNY     76  60  57 SE6       29.91F
LAKE ELMO      FAIR      75  61  60 SE10      29.93F
$$
MNZ001>005-007-008-013>017-022>024-027-028-211900-
   Northwest Minnesota

CITY           SKY/WX    TMP DP  RH WIND       PRES   REMARKS
BEMIDJI        SUNNY     71  44  39 SE14G21   29.87F
HALLOCK        CLOUDY    73  45  35 S24G30    29.77F
ROSEAU         SUNNY     73  48  40 S12       29.82F
WARROAD        SUNNY     73  46  38 SE8       29.84F
THIEF RVR FALL SUNNY     75  45  34 S13       29.82F
CROOKSTON      SUNNY     73  45  35 S17       29.80F
FOSSTON        SUNNY     73  41  31 SE16      29.83F
DETROIT LAKES  SUNNY     72  45  37 SE18G25   29.83F
MOORHEAD       SUNNY     75  43  31 S14       29.79F
PARK RAPIDS    SUNNY     72  46  39 SE18      29.87F
MAHNOMEN       FAIR      73  42  32 S15G25    29.82F
$$
MNZ006-009>011-018-025>026-211900-
   North Central Minnesota

CITY           SKY/WX    TMP DP  RH WIND       PRES   REMARKS
BAUDETTE       SUNNY     72  43  35 SE16G25   29.87F
FLAG ISLAND    SUNNY     66  50  55 S15       29.84F
INTL FALLS     SUNNY     68  47  46 S9        29.93F
6HR MIN TEMP:  41; 6HR MAX TEMP:  69;

WASKISH        PTSUNNY   72  45  37 SE12G17   29.88F
BIG FORK       SUNNY     70  48  46 S12G18    29.93F
LONGVILLE      SUNNY     72  48  43 SE12      29.90F
GRAND RAPIDS   SUNNY     69  48  47 SE13      29.95F
CRANE LAKE     SUNNY     68  46  45 SE5       29.98F
ORR            SUNNY     70  45  40 SE8       29.92F
COOK           SUNNY     68  46  45 SE12      29.96F
WALKER         FAIR      67  48  50 SE8G16    29.89F
$$
MNZ012-019>021-037-211900-
   Northeast Minnesota

CITY           SKY/WX    TMP DP  RH WIND       PRES   REMARKS
DULUTH         SUNNY     67  54  63 E14       29.97F
6HR MIN TEMP:  43; 6HR MAX TEMP:  67;

ELY            SUNNY     68  46  45 SE13      30.00F
HIBBING        SUNNY     67  48  50 E18       29.96F
EVELETH        SUNNY     68  34  28 SE14      29.98F
DULUTH HARBOR  SUNNY     63  57  82 NE17      29.98F
TWO HARBORS    SUNNY     72  59  64 E8        29.98F
SILVER BAY     SUNNY     68  57  68 E8        30.00F
GRAND MARAIS     N/A     62  57  83 E10       30.05F
G MARAIS ARPRT MOSUNNY   63  52  67 SE8       30.07F
$$
MNZ029>031-032-039>041-046>048-054>057-064-211900-
   West Central Minnesota

CITY           SKY/WX    TMP DP  RH WIND       PRES   REMARKS
FERGUS FALLS   SUNNY     73  45  35 SE23G29   29.81S
WHEATON        SUNNY     75  43  31 SE15G23   29.80F
MORRIS         SUNNY     75  52  43 SE22G28   29.79F
ALEXANDRIA     SUNNY     73  47  39 SE16G23   29.87F
ELBOW LAKE     FAIR      73  46  37 E18G26    29.82F
WADENA         SUNNY     70  48  46 SE18      29.87S
GLENWOOD       SUNNY     73  52  46 SE20      29.86F
APPLETON       SUNNY     77  55  47 SE15G24   29.78F
BENSON         SUNNY     75  54  46 S16G25    29.82F
ORTONVILLE     SUNNY     75  54  46 NE12G21   29.77F
MADISON        SUNNY     79  61  53 SE14G24   29.78F
WILLMAR        FAIR      75  61  60 E14       29.86F
$$
MNZ033>034-036-042>043-049>051-058-059-211900-
   Central Minnesota

CITY           SKY/WX    TMP DP  RH WIND       PRES   REMARKS
ST CLOUD       SUNNY     74  55  51 SE12G20   29.88F
6HR MIN TEMP:  45; 6HR MAX TEMP:  74;

SAUK CENTRE    FAIR      72  52  48 SE13      29.88F
PAYNESVILLE    SUNNY     74  56  53 SE10G16   29.87F
AITKIN         SUNNY     72  50  46 SE10      29.91F
PINE RIVER     SUNNY     66  48  52 SE13G21   29.94F
BRAINERD       SUNNY     70  49  47 SE9G21    29.92F
LONG PRAIRIE   FAIR      72  50  46 E9G16     29.89F
LITTLE FALLS   SUNNY     72  39  30 SE10G16   29.90F
LITCHFIELD     SUNNY     75  61  60 SE15      29.87F
BUFFALO        SUNNY     75  56  53 SE12      29.89F
MAPLE LAKE     SUNNY     76  61  59 SE9       29.90F
HUTCHINSON     CLOUDY    76  63  64 SE14G20   29.88F
$$
MNZ037-044-045-052-053-211900-
   East Central Minnesota

CITY           SKY/WX    TMP DP  RH WIND       PRES   REMARKS
PRINCETON      SUNNY     77  55  47 SE9       29.90F
MORA           SUNNY     72  54  53 SE7       29.92F
CAMBRIDGE      SUNNY     79  57  47 E9G17     29.91F
RUSH CITY      SUNNY     75  54  47 SE8       29.92F
MOOSE LAKE     SUNNY     72  50  46 SE7       29.93F
HINCKLEY       FAIR      73  55  53 E9        29.93F
CLOQUET        SUNNY     66  52  59 E8        29.97F
MCGREGOR       SUNNY     70  50  49 SE12G17   29.93F
$$
MNZ071>073-080-081-089-090-097-098-211900-
   Southwest Minnesota

CITY           SKY/WX    TMP DP  RH WIND       PRES   REMARKS
MONTEVIDEO     SUNNY     79  61  53 S16       29.81F
GRANITE FALLS  SUNNY     78  63  60 E15G21    29.83F
CANBY          SUNNY     80  65  59 E20       29.79F
MARSHALL       SUNNY     80  67  64 S21G28    29.79F
REDWOOD FALLS  SUNNY     78  63  59 SE15G24   29.83F
OLIVIA         MOSUNNY   77  63  61 SE16G23   29.84F
PIPESTONE      SUNNY     81  66  61 S16G25    29.79F
WINDOM         SUNNY     79  64  61 SE15G24   29.85F
WORTHINGTON    SUNNY     78  67  68 SE16G24   29.83F
JACKSON        SUNNY     77  64  65 SE15G22   29.86F
TRACY          SUNNY     80  69  68 SE15      29.82F
SLAYTON        MOSUNNY   78  66  66 SE14G20   29.84F
$$
MNZ065>067-074>077-082>085-091>093-211900-
   South Central Minnesota

CITY           SKY/WX    TMP DP  RH WIND       PRES   REMARKS
MANKATO        SUNNY     76  67  73 SE13      29.88F
NEW ULM        MOSUNNY   75  66  73 SE13      29.85F
ST JAMES       SUNNY     79  66  65 SE14      29.86F
FAIRMONT       SUNNY     77  67  71 S17       29.87F
GLENCOE        SUNNY     78  66  66 SE14G20   29.88F
FARIBAULT      CLOUDY    75  66  73 SE13      29.91F
OWATONNA       SUNNY     77  66  69 SE13      29.90F
WASECA         SUNNY     77  66  69 SE12      29.91F
ALBERT LEA     SUNNY     81  70  69 SE13      29.91F
$$
MNZ078>079-086>088-094>096-211900-
   Southeast Minnesota

CITY           SKY/WX    TMP DP  RH WIND       PRES   REMARKS
ROCHESTER      MOSUNNY   77  67  71 SE12      29.94F
6HR MIN TEMP:  57; 6HR MAX TEMP:  77;

RED WING       MOSUNNY   77  59  53 SE14      29.91F
STANTON        CLOUDY    75  64  68 SE7       29.90F
DODGE CENTER   SUNNY     77  64  65 SE10G17   29.93F
WINONA           N/A    N/A N/A N/A MISG        N/A
AUSTIN         MOSUNNY   79  66  65 S9        29.92F
PRESTON        MOSUNNY   78  65  63 S10       29.95F
$$
ABBREVIATIONS USED IN REMARKS
   TC - TEMPERATURES IN CELSIUS
  WCI - WIND CHILL INDEX
   HX - HEAT INDEX
  VSB - VISIBILITY
$$




USA.gov is the U.S. government's official web portal to all federal, state and local government web resources and services.